• Join FlightAware (Why Join?)
  • Login
  • US Flag GB Flag 
18:05 EDT


 

Airport Tracker/Info


-or-


 

Live Flight TrackerFlight Track Log ✈ AAY809 ✈ 10-Feb-2014 ✈ KFSD - KPIE

Flight Track Log - Related Links

Times and Time Zones

All times are in EST time to prevent confusion due to time zone crossing. See the AAY809 flight status page for this flight to view local times or setup timezone preferences in your user account.

Time Position Orientation Groundspeed Altitude Reporting Facility
EST Latitude Longitude Course Direction KTS MPH feet Rate Location/Type
11:20 43.5247 -96.6922 133° Southeast 220 253 5,900  Level Minneapolis Center
11:21 43.5144 -96.5969 98° East 236 272 8,600 2,760 Climbing Minneapolis Center
11:22 43.4672 -96.5031 125° Southeast 284 327 11,700 2,520 Climbing Minneapolis Center
11:23 43.3917 -96.3950 134° Southeast 321 369 13,900 1,920 Climbing Minneapolis Center
11:26 43.1489 -96.0386 132° Southeast 439 505 19,800 1,860 Climbing Minneapolis Center
11:27 43.0594 -95.9097 134° Southeast 462 532 21,700 1,920 Climbing Minneapolis Center
11:28 42.9681 -95.7767 133° Southeast 476 548 23,800 2,040 Climbing Minneapolis Center
11:29 42.8756 -95.6444 134° Southeast 483 556 25,900 1,920 Climbing Minneapolis Center
11:30 42.7631 -95.4836 134° Southeast 489 563 27,800 1,560 Climbing Minneapolis Center
11:31 42.6739 -95.3539 133° Southeast 490 564 29,200 1,200 Climbing Minneapolis Center
11:32 42.7214 -95.4238 132° Southeast  Level FlightAware Approximate
11:32 42.5781 -95.2203 134° Southeast 491 565 30,300  Level Minneapolis Center
11:33 42.4842 -95.0878 134° Southeast 488 562 31,800 1,080 Climbing Minneapolis Center
11:34 42.3897 -94.9556 134° Southeast 488 562 32,600 540 Climbing Minneapolis Center
11:35 42.2958 -94.8244 134° Southeast 485 558 33,000 180 Climbing Minneapolis Center
11:37 42.1775 -94.6594 134° Southeast 502 578 33,000  Level Minneapolis Center
11:39 41.9603 -94.3558 134° Southeast 501 577 33,000  Level Kansas City Center
11:40 41.8844 -94.2567 136° Southeast 502 578 33,000  Level Minneapolis Center
11:41 41.7864 -94.1231 135° Southeast 502 578 33,000  Level Minneapolis Center
11:42 41.6867 -93.9878 135° Southeast 505 581 33,000  Level Minneapolis Center
11:43 41.5842 -93.8506 135° Southeast 508 585 33,000  Level Minneapolis Center
11:45 41.3525 -93.5761 138° Southeast 507 583 33,000  Level Minneapolis Center
11:46 41.2347 -93.4831 149° Southeast 502 578 33,000  Level Minneapolis Center
11:47 41.1169 -93.3867 148° Southeast 499 574 33,000  Level Minneapolis Center
11:48 40.9769 -93.2711 148° Southeast 496 571 33,000  Level Minneapolis Center
11:49 40.8600 -93.1750 148° Southeast 497 572 33,000  Level Minneapolis Center
11:50 40.7422 -93.0806 149° Southeast 497 572 33,000  Level Minneapolis Center
11:51 40.5994 -92.9653 148° Southeast 500 575 33,000  Level Minneapolis Center
11:52 40.4806 -92.8689 148° Southeast 505 581 33,000  Level Chicago Center
11:53 40.3703 -92.7806 149° Southeast 505 581 33,000  Level Kansas City Center
11:54 40.2353 -92.6722 148° Southeast 508 585 33,000  Level Kansas City Center
11:55 40.1211 -92.5803 148° Southeast 505 581 33,000  Level Kansas City Center
11:56 39.9972 -92.4539 142° Southeast 511 588 33,000  Level Kansas City Center
11:57 39.8836 -92.3406 143° Southeast 516 594 33,000  Level Kansas City Center
11:58 39.7694 -92.2294 143° Southeast 516 594 33,000  Level Kansas City Center
11:59 39.6558 -92.1172 143° Southeast 515 593 33,000  Level Kansas City Center
12:00 39.5414 -92.0039 143° Southeast 518 596 33,000  Level Kansas City Center
12:01 39.4033 -91.8708 143° Southeast 517 595 33,000  Level Kansas City Center
12:02 39.2894 -91.7600 143° Southeast 515 593 33,000  Level Kansas City Center
12:05 39.0692 -91.5442 142° Southeast 518 596 33,000  Level Kansas City Center
12:06 38.9539 -91.4333 143° Southeast 519 597 33,000  Level Kansas City Center
12:07 38.8158 -91.3022 143° Southeast 519 597 33,000  Level Kansas City Center
12:09 38.5922 -91.0903 143° Southeast 509 586 33,000  Level Memphis Center
12:11 38.3639 -90.8761 144° Southeast 507 583 33,000  Level Kansas City Center
12:13 38.1158 -90.6447 144° Southeast 508 585 33,000  Level Kansas City Center
12:15 37.9039 -90.4478 144° Southeast 507 583 33,000  Level Memphis Center
12:16 37.7764 -90.3333 145° Southeast 501 577 33,000  Level Kansas City Center
12:17 37.6611 -90.2306 145° Southeast 506 582 33,000  Level Kansas City Center
12:18 37.5253 -90.1033 143° Southeast 508 585 33,000  Level Kansas City Center
12:19 37.4183 -90.0061 144° Southeast 506 582 33,000  Level Kansas City Center
12:20 37.3053 -89.9022 144° Southeast 503 579 33,000  Level Kansas City Center
12:21 37.1925 -89.7992 144° Southeast 501 577 33,000  Level Kansas City Center
12:22 37.0789 -89.6969 144° Southeast 501 577 33,000  Level Kansas City Center
12:23 36.9669 -89.5964 144° Southeast 499 574 33,000  Level Memphis Center
12:24 36.8536 -89.4947 144° Southeast 500 575 33,000  Level Memphis Center
12:25 36.7406 -89.3939 144° Southeast 497 572 33,000  Level Memphis Center
12:26 36.6247 -89.2914 145° Southeast 502 578 33,000  Level Memphis Center
12:28 36.3908 -89.0850 146° Southeast 503 579 33,000  Level Memphis Center
12:29 36.2528 -88.9636 145° Southeast 502 578 33,000  Level Memphis Center
12:31 36.0222 -88.7625 145° Southeast 505 581 33,000  Level Memphis Center
12:32 35.9050 -88.6611 145° Southeast 511 588 33,000  Level Memphis Center
12:33 35.7897 -88.5611 145° Southeast 508 585 33,000  Level Memphis Center
12:34 35.6744 -88.4617 145° Southeast 505 581 33,000  Level Memphis Center
12:35 35.5603 -88.3625 145° Southeast 502 578 33,000  Level Memphis Center
12:36 35.4453 -88.2656 146° Southeast 500 575 33,000  Level Memphis Center
12:38 35.2011 -88.0575 147° Southeast 501 577 33,000  Level Memphis Center
12:39 35.0861 -87.9619 146° Southeast 500 575 33,000 120 Level Memphis Center
12:40 34.9722 -87.8647 145° Southeast 500 575 33,300 480 Climbing Memphis Center
12:41 34.8594 -87.7706 146° Southeast 494 568 34,000 300 Climbing Memphis Center
12:43 34.7228 -87.6553 145° Southeast 496 571 34,000 -300 Level Memphis Center
12:45 34.5017 -87.4719 146° Southeast 491 565 33,200 -360 Descending Memphis Center
12:46 34.3878 -87.3781 146° Southeast 490 564 33,000 -120 Descending Memphis Center
12:47 34.2744 -87.2850 146° Southeast 488 562 33,000  Level Memphis Center
12:48 34.1514 -87.1839 146° Southeast 491 565 33,000  Level Memphis Center
12:50 33.9256 -86.9981 146° Southeast 492 566 33,000  Level Atlanta Center
12:51 33.8131 -86.9067 146° Southeast 492 566 33,000  Level Atlanta Center
12:53 33.5897 -86.7244 146° Southeast 492 566 33,000  Level Atlanta Center
12:54 33.4767 -86.6339 146° Southeast 492 566 33,000  Level Atlanta Center
12:58 33.0206 -86.2686 146° Southeast 482 555 33,000  Level Atlanta Center
12:59 32.9075 -86.1792 146° Southeast 475 547 33,000  Level Atlanta Center
13:00 32.7942 -86.0897 146° Southeast 488 562 33,000  Level Atlanta Center
13:01 32.6786 -85.9983 146° Southeast 493 567 33,000  Level Atlanta Center
13:02 32.5694 -85.9119 146° Southeast 493 567 33,000  Level Atlanta Center
13:03 32.5485 -85.8902 146° Southeast  Level FlightAware Approximate
13:03 32.4539 -85.8283 149° Southeast 493 567 33,000  Level Atlanta Center
13:04 32.3464 -85.7378 145° Southeast 488 562 33,000  Level Atlanta Center
13:05 32.2350 -85.6497 146° Southeast 483 556 33,000  Level Atlanta Center
13:06 32.1214 -85.5617 147° Southeast 478 550 33,000  Level Atlanta Center
13:07 32.0094 -85.4792 148° Southeast 478 550 33,000  Level Atlanta Center
13:10 31.6547 -85.2064 147° Southeast 484 557 33,000  Level Jacksonville Center
13:11 31.5436 -85.1231 147° Southeast 472 543 33,000  Level Jacksonville Center
13:12 31.4303 -85.0353 147° Southeast 477 549 33,000  Level Jacksonville Center
13:13 31.3189 -84.9500 147° Southeast 482 555 33,000  Level Jacksonville Center
13:14 31.2075 -84.8672 148° Southeast 482 555 33,000  Level Jacksonville Center
13:15 31.0981 -84.7825 146° Southeast 482 555 33,000  Level Jacksonville Center
13:17 30.8750 -84.6136 147° Southeast 476 548 33,000  Level Jacksonville Center
13:20 30.5606 -84.3786 147° Southeast 476 548 33,000  Level Jacksonville Center
13:21 30.4364 -84.2972 151° Southeast 476 548 33,000 -60 Level Jacksonville Center
13:22 30.3203 -84.2208 150° Southeast 476 548 32,900  Descending Jacksonville Center
13:23 30.1978 -84.1400 150° Southeast 471 542 33,000 -120 Climbing Jacksonville Center
13:26 29.8531 -83.9175 149° Southeast 471 542 32,600 -300 Descending Jacksonville Center
13:27 29.7494 -83.8519 151° Southeast 471 542 31,900 -660 Descending Jacksonville Center
13:28 29.6331 -83.7767 151° Southeast 471 542 31,300 -960 Descending Jacksonville Center
13:29 29.5186 -83.7039 151° Southeast 476 548 30,000 -1,320 Descending Jacksonville Center
13:30 29.4022 -83.6267 150° Southeast 476 548 28,700 -1,440 Descending Jacksonville Center
13:31 29.2836 -83.5544 152° Southeast 476 548 27,200 -1,440 Descending Jacksonville Center
13:33 29.0483 -83.4033 151° Southeast 483 556 24,400 -1,080 Descending Jacksonville Center
13:34 28.9339 -83.3314 151° Southeast 478 550 24,000 -780 Descending Jacksonville Center
13:35 28.8214 -83.2600 151° Southeast 478 550 22,900 -2,040 Descending Jacksonville Center
13:36 28.7108 -83.1861 150° Southeast 473 544 20,000 -2,940 Descending Jacksonville Center
13:37 28.5667 -83.1000 152° Southeast 434 499 16,200 -2,940 Descending Tampa TRACON
13:38 28.4500 -83.0333 153° Southeast 417 480 13,300 -1,980 Descending Tampa TRACON
13:39 28.3667 -82.9667 145° Southeast 394 453 12,500 -1,140 Descending Tampa TRACON
13:40 28.2667 -82.9167 156° South 346 398 11,100 -1,200 Descending Tampa TRACON
13:41 28.2000 -82.8667 147° Southeast 318 366 10,100 -1,260 Descending Tampa TRACON
13:42 28.1167 -82.8333 161° South 287 330 8,600 -1,620 Descending Tampa TRACON
13:43 28.0500 -82.8000 156° South 285 328 7,100 -1,740 Descending Tampa TRACON
13:45 27.9000 -82.7833 190° South 254 292 3,800 -1,440 Descending Tampa TRACON
13:47 27.8333 -82.7000 132° Southeast 169 194 1,600 -1,080 Descending Tampa TRACON
13:48 27.8667 -82.6833 24° Northeast 142 163 700 -900 Descending Tampa TRACON